{"data":{"norad_id":59007,"epoch":"2026-09-20T08:32:05.580096Z","epoch_age_seconds":168752,"freshness":"FRESH","line1":"1 59007U 24036K   26263.35562014  .00001647  00000+0  59895-4 0  9998","line2":"2 59007  53.1586 252.0696 0001230  92.3216 267.7928 15.34388833145153","mean_motion":15.34388833,"eccentricity":0.000123,"inclination_deg":53.1586,"raan_deg":252.0696,"arg_perigee_deg":92.3216,"mean_anomaly_deg":267.7928,"bstar":5.9895e-5,"rev_number":14515,"period_min":93.848441088075,"perigee_km":461.89500365372,"apogee_km":463.57785851776,"semimajor_km":6840.8734310857,"source":"CELESTRAK","updated_at":"2026-09-21T09:00:34.024706Z"}}